Location: Newark
(20.0000°S, 47.0000°E)
Time: 23:47:38
(UTC+00:00)

OTV 5 (USA 277) - Visible Passes

Search period start: 18 March 2019 00:00
Search period end: 28 March 2019 00:00
Orbit: 315 x 320 km, 54.5° (Epoch: 14 March)

Date Brightness Start Highest point End Pass type
(mag) Time Alt. Az. Time Alt. Az. Time Alt. Az.
20 Mar ? 02:22:30 10° SSE 02:23:45 12° SE 02:25:00 10° ESE visible
22 Mar ? 15:53:40 10° NNW 15:56:12 37° ENE 15:56:42 33° E visible
23 Mar ? 01:32:30 17° SSE 01:33:39 23° SE 01:35:54 10° ENE visible
23 Mar ? 16:08:18 10° WNW 16:10:51 36° SW 16:12:29 18° S visible
24 Mar ? 01:48:25 67° NW 01:48:25 67° NW 01:51:02 10° NNE visible
24 Mar ? 16:25:18 10° SW 16:25:39 10° SW 16:26:00 10° SW visible
25 Mar ? 02:04:22 10° NNW 02:04:22 10° NNW 02:04:28 10° NNW visible
26 Mar ? 15:18:42 10° W 15:20:43 18° SW 15:22:44 10° S visible
